Back to catalog

COSMOS 2251 DEB

AliveLEO
NORAD 35435·DEBRIS·🇷🇺 Russia

Launched Jun 16, 1993 from Plesetsk Cosmodrome

Loading…

Next Passes (next 24 hours)

TLE

FreshSource: Space-Track

Epoch: Sep 13, 2026, 08:28 UTC

1 35435U 93036AKD 26256.35296887  .00007526  00000-0  86248-3 0  9991
2 35435  74.0060 279.9505 0014155 302.2802  70.3568 14.86011993916095

Track COSMOS 2251 DEB in real time with AllMySat

Download on the App Store